| time (UTC) | temp C | wind direction | speed KPH | gust KPH | rain 1hr cm | rain 24hr cm | rain mn cm | humidity % | barometer mb |
| 20260506122024 | 17 | 232 | 0.0 | 8.0 | 0.00 | 0.00 | 0.00 | 91 | 1016.0 |
| 20260506121539 | 17 | 185 | 0.0 | 8.0 | 0.00 | 0.00 | 0.00 | 91 | 1015.9 |
| 20260506121024 | 17 | 235 | 0.0 | 4.8 | 0.00 | 0.00 | 0.00 | 92 | 1015.7 |
| 20260506120522 | 17 | 236 | 0.0 | 4.8 | 0.00 | 0.00 | 0.00 | 92 | 1015.6 |
| 20260506120036 | 17 | 179 | 0.0 | 4.8 | 0.00 | 0.00 | 0.00 | 93 | 1015.5 |
| 20260506115526 | 17 | 0 | 0.0 | 4.8 | 0.00 | 0.00 | 0.00 | 93 | 1015.4 |
| 20260506115020 | 16 | 0 | 0.0 | 0.0 | 0.00 | 0.00 | 0.00 | 93 | 1015.2 |
| 20260506114539 | 16 | 0 | 0.0 | 1.6 | 0.00 | 0.00 | 0.00 | 93 | 1015.3 |
| 20260506114020 | 16 | 0 | 0.0 | 1.6 | 0.00 | 0.00 | 0.00 | 93 | 1015.2 |
| 20260506113520 | 16 | 0 | 0.0 | 1.6 | 0.00 | 0.00 | 0.00 | 93 | 1015.1 |
| 20260506113045 | 16 | 0 | 0.0 | 1.6 | 0.00 | 0.00 | 0.00 | 92 | 1014.8 |
| 20260506112522 | 16 | 0 | 0.0 | 1.6 | 0.00 | 0.00 | 0.00 | 93 | 1014.8 |
| 20260506112020 | 16 | 0 | 0.0 | 0.0 | 0.00 | 0.00 | 0.00 | 92 | 1014.7 |
| 20260506111541 | 16 | 0 | 0.0 | 0.0 | 0.00 | 0.00 | 0.00 | 91 | 1014.8 |
| 20260506111023 | 16 | 0 | 0.0 | 0.0 | 0.00 | 0.00 | 0.00 | 90 | 1014.8 |
| 20260506110530 | 16 | 0 | 0.0 | 0.0 | 0.00 | 0.00 | 0.00 | 90 | 1014.6 |
| 20260506110051 | 16 | 0 | 0.0 | 0.0 | 0.00 | 0.00 | 0.00 | 90 | 1014.6 |
| 20260506105523 | 16 | 0 | 0.0 | 0.0 | 0.00 | 0.00 | 0.00 | 90 | 1014.5 |
| 20260506105026 | 16 | 0 | 0.0 | 0.0 | 0.00 | 0.00 | 0.00 | 90 | 1014.5 |
| 20260506104543 | 16 | 0 | 0.0 | 0.0 | 0.00 | 0.00 | 0.00 | 90 | 1014.3 |
| 20260506104020 | 16 | 0 | 0.0 | 0.0 | 0.00 | 0.00 | 0.00 | 90 | 1014.2 |
| 20260506103520 | 16 | 0 | 0.0 | 1.6 | 0.00 | 0.00 | 0.00 | 90 | 1014.0 |
| 20260506103045 | 16 | 0 | 0.0 | 1.6 | 0.00 | 0.00 | 0.00 | 90 | 1014.1 |
| 20260506102520 | 16 | 0 | 0.0 | 1.6 | 0.00 | 0.00 | 0.00 | 90 | 1014.0 |
| 20260506102020 | 16 | 0 | 0.0 | 1.6 | 0.00 | 0.00 | 0.00 | 90 | 1014.0 |
| 20260506101548 | 16 | 0 | 0.0 | 1.6 | 0.00 | 0.00 | 0.00 | 90 | 1014.0 |
| 20260506101019 | 16 | 0 | 0.0 | 1.6 | 0.00 | 0.00 | 0.00 | 90 | 1014.0 |
| 20260506100519 | 16 | 0 | 0.0 | 1.6 | 0.00 | 0.00 | 0.00 | 90 | 1014.0 |
| 20260506100059 | 16 | 0 | 0.0 | 3.2 | 0.00 | 0.00 | 0.00 | 90 | 1014.0 |
| 20260506095525 | 16 | 0 | 0.0 | 4.8 | 0.00 | 0.00 | 0.00 | 90 | 1014.0 |
| 20260506095026 | 16 | 0 | 0.0 | 4.8 | 0.00 | 0.00 | 0.00 | 91 | 1014.0 |
| 20260506094540 | 16 | 0 | 0.0 | 1.6 | 0.00 | 0.00 | 0.00 | 91 | 1014.1 |
| 20260506094026 | 16 | 0 | 0.0 | 1.6 | 0.00 | 0.00 | 0.00 | 91 | 1014.2 |
| 20260506093522 | 16 | 0 | 0.0 | 1.6 | 0.00 | 0.00 | 0.00 | 91 | 1014.2 |
| 20260506093043 | 16 | 0 | 0.0 | 0.0 | 0.00 | 0.00 | 0.00 | 90 | 1014.3 |
| 20260506092523 | 16 | 0 | 0.0 | 0.0 | 0.00 | 0.00 | 0.00 | 90 | 1014.3 |
| 20260506092025 | 16 | 0 | 0.0 | 0.0 | 0.00 | 0.00 | 0.00 | 89 | 1014.2 |
| 20260506091538 | 16 | 0 | 0.0 | 0.0 | 0.00 | 0.00 | 0.00 | 89 | 1014.1 |
| 20260506091028 | 16 | 0 | 0.0 | 0.0 | 0.00 | 0.00 | 0.00 | 89 | 1014.1 |
| 20260506090522 | 16 | 0 | 0.0 | 1.6 | 0.00 | 0.00 | 0.00 | 89 | 1014.2 |
| 20260506090035 | 16 | 0 | 0.0 | 1.6 | 0.00 | 0.00 | 0.00 | 88 | 1014.2 |
| 20260506085526 | 16 | 0 | 0.0 | 1.6 | 0.00 | 0.00 | 0.00 | 88 | 1014.4 |
| 20260506085023 | 16 | 0 | 0.0 | 1.6 | 0.00 | 0.00 | 0.00 | 88 | 1014.5 |
| 20260506084554 | 16 | 0 | 0.0 | 1.6 | 0.00 | 0.00 | 0.00 | 88 | 1014.5 |
| 20260506084020 | 16 | 0 | 0.0 | 1.6 | 0.00 | 0.00 | 0.00 | 88 | 1014.5 |
| 20260506083520 | 16 | 0 | 0.0 | 1.6 | 0.00 | 0.00 | 0.00 | 88 | 1014.6 |
| 20260506083035 | 16 | 0 | 0.0 | 0.0 | 0.00 | 0.00 | 0.00 | 88 | 1014.6 |
| 20260506082526 | 17 | 0 | 0.0 | 0.0 | 0.00 | 0.00 | 0.00 | 88 | 1014.6 |
| 20260506082020 | 17 | 0 | 0.0 | 0.0 | 0.00 | 0.00 | 0.00 | 88 | 1014.7 |
| 20260506081541 | 17 | 0 | 0.0 | 0.0 | 0.00 | 0.00 | 0.00 | 88 | 1014.7 |
| 20260506081023 | 16 | 0 | 0.0 | 0.0 | 0.00 | 0.00 | 0.00 | 87 | 1014.8 |
| 20260506080523 | 16 | 0 | 0.0 | 0.0 | 0.00 | 0.00 | 0.00 | 87 | 1014.8 |
| 20260506073524 | 17 | 0 | 0.0 | 0.0 | 0.00 | 0.00 | 0.00 | 85 | 1014.7 |
| 20260506073043 | 17 | 0 | 0.0 | 0.0 | 0.00 | 0.00 | 0.00 | 85 | 1014.5 |
| 20260506072520 | 17 | 0 | 0.0 | 0.0 | 0.00 | 0.00 | 0.00 | 85 | 1014.2 |
| 20260506072023 | 17 | 0 | 0.0 | 0.0 | 0.00 | 0.00 | 0.00 | 84 | 1014.1 |
| 20260506071537 | 17 | 0 | 0.0 | 0.0 | 0.00 | 0.00 | 0.00 | 84 | 1014.2 |
| 20260506071022 | 17 | 0 | 0.0 | 0.0 | 0.00 | 0.00 | 0.00 | 84 | 1014.2 |
| 20260506070524 | 17 | 0 | 0.0 | 0.0 | 0.00 | 0.00 | 0.00 | 84 | 1014.4 |
| 20260506062022 | 18 | 0 | 0.0 | 1.6 | 0.00 | 0.00 | 0.00 | 81 | 1014.3 |
| 20260506061537 | 18 | 0 | 0.0 | 3.2 | 0.00 | 0.00 | 0.00 | 81 | 1014.4 |
| 20260506061026 | 18 | 0 | 0.0 | 4.8 | 0.00 | 0.00 | 0.00 | 81 | 1014.2 |
| 20260506060523 | 18 | 0 | 0.0 | 4.8 | 0.00 | 0.00 | 0.00 | 81 | 1014.2 |
| 20260506051023 | 16 | 0 | 1.6 | 4.8 | 0.00 | 0.00 | 0.00 | 80 | 1014.9 |
| 20260506050519 | 16 | 0 | 0.0 | 8.0 | 0.00 | 0.00 | 0.00 | 79 | 1014.7 |
| 20260506045022 | 16 | 0 | 0.0 | 0.0 | 0.00 | 0.00 | 0.00 | 79 | 1014.5 |
| 20260506044618 | 16 | 0 | 0.0 | 0.0 | 0.00 | 0.00 | 0.00 | 79 | 1014.6 |
| 20260506044022 | 16 | 0 | 0.0 | 0.0 | 0.00 | 0.00 | 0.00 | 79 | 1014.7 |
| 20260506043520 | 16 | 0 | 0.0 | 0.0 | 0.00 | 0.00 | 0.00 | 79 | 1014.5 |
| 20260506043040 | 16 | 0 | 0.0 | 0.0 | 0.00 | 0.00 | 0.00 | 80 | 1014.4 |
| 20260506042523 | 16 | 0 | 0.0 | 0.0 | 0.00 | 0.00 | 0.00 | 79 | 1014.4 |
| 20260506042021 | 16 | 0 | 0.0 | 0.0 | 0.00 | 0.00 | 0.00 | 79 | 1014.5 |
| 20260506041534 | 16 | 0 | 0.0 | 0.0 | 0.00 | 0.00 | 0.00 | 79 | 1014.7 |
| 20260506041028 | 16 | 0 | 0.0 | 0.0 | 0.00 | 0.00 | 0.00 | 78 | 1014.7 |
| 20260506040519 | 16 | 0 | 0.0 | 0.0 | 0.00 | 0.00 | 0.00 | 78 | 1014.9 |
| 20260506040043 | 16 | 0 | 0.0 | 0.0 | 0.00 | 0.00 | 0.00 | 78 | 1014.7 |
| 20260506035519 | 16 | 0 | 0.0 | 0.0 | 0.00 | 0.00 | 0.00 | 78 | 1014.6 |
| 20260506035020 | 16 | 0 | 0.0 | 0.0 | 0.00 | 0.00 | 0.00 | 79 | 1014.6 |
| 20260506034602 | 16 | 0 | 0.0 | 0.0 | 0.00 | 0.00 | 0.00 | 78 | 1014.7 |
| 20260506034020 | 16 | 0 | 0.0 | 0.0 | 0.00 | 0.00 | 0.00 | 77 | 1014.6 |
| 20260506033519 | 16 | 0 | 0.0 | 0.0 | 0.00 | 0.00 | 0.00 | 76 | 1014.5 |
| 20260506033037 | 16 | 0 | 0.0 | 0.0 | 0.00 | 0.00 | 0.00 | 77 | 1014.4 |
| 20260506032523 | 16 | 0 | 0.0 | 0.0 | 0.00 | 0.00 | 0.00 | 75 | 1014.5 |
| 20260506032021 | 16 | 0 | 0.0 | 0.0 | 0.00 | 0.00 | 0.00 | 76 | 1014.5 |
| 20260506031540 | 16 | 0 | 0.0 | 0.0 | 0.00 | 0.00 | 0.00 | 76 | 1014.5 |
| 20260506031023 | 17 | 0 | 0.0 | 0.0 | 0.00 | 0.00 | 0.00 | 75 | 1014.7 |
| 20260506030522 | 17 | 0 | 0.0 | 0.0 | 0.00 | 0.00 | 0.00 | 74 | 1014.6 |
| 20260506030035 | 17 | 0 | 0.0 | 0.0 | 0.00 | 0.00 | 0.00 | 73 | 1014.6 |
| 20260506025522 | 17 | 0 | 0.0 | 0.0 | 0.00 | 0.00 | 0.00 | 74 | 1014.7 |
| 20260506025022 | 17 | 0 | 0.0 | 0.0 | 0.00 | 0.00 | 0.00 | 73 | 1014.9 |
| 20260506024544 | 17 | 0 | 0.0 | 0.0 | 0.00 | 0.00 | 0.00 | 73 | 1014.9 |
| 20260506024022 | 17 | 0 | 0.0 | 0.0 | 0.00 | 0.00 | 0.00 | 73 | 1015.0 |
| 20260506023523 | 17 | 0 | 0.0 | 0.0 | 0.00 | 0.00 | 0.00 | 72 | 1015.0 |
| 20260506023059 | 17 | 0 | 0.0 | 0.0 | 0.00 | 0.00 | 0.00 | 73 | 1015.1 |
| 20260506022522 | 17 | 0 | 0.0 | 0.0 | 0.00 | 0.00 | 0.00 | 72 | 1014.9 |
| 20260506022019 | 17 | 0 | 0.0 | 0.0 | 0.00 | 0.00 | 0.00 | 71 | 1014.8 |
| 20260506021536 | 17 | 0 | 0.0 | 0.0 | 0.00 | 0.00 | 0.00 | 71 | 1014.9 |
| 20260506021019 | 18 | 0 | 0.0 | 0.0 | 0.00 | 0.00 | 0.00 | 70 | 1014.9 |
| 20260506020518 | 18 | 0 | 0.0 | 0.0 | 0.00 | 0.00 | 0.00 | 69 | 1014.8 |
| 20260506020036 | 18 | 0 | 0.0 | 0.0 | 0.00 | 0.00 | 0.00 | 68 | 1014.8 |
| 20260506015521 | 18 | 0 | 0.0 | 0.0 | 0.00 | 0.00 | 0.00 | 67 | 1014.7 |
| 20260506015019 | 18 | 0 | 0.0 | 0.0 | 0.00 | 0.00 | 0.00 | 67 | 1014.7 |
| 20260506014542 | 18 | 0 | 0.0 | 0.0 | 0.00 | 0.00 | 0.00 | 67 | 1014.9 |
| 20260506014022 | 18 | 0 | 0.0 | 0.0 | 0.00 | 0.00 | 0.00 | 66 | 1014.9 |
| 20260506013522 | 19 | 0 | 0.0 | 0.0 | 0.00 | 0.00 | 0.00 | 65 | 1014.7 |
| 20260506013041 | 19 | 0 | 0.0 | 0.0 | 0.00 | 0.00 | 0.00 | 66 | 1014.7 |
| 20260506012523 | 19 | 0 | 0.0 | 0.0 | 0.00 | 0.00 | 0.00 | 64 | 1014.8 |
| 20260506012022 | 19 | 0 | 0.0 | 0.0 | 0.00 | 0.00 | 0.00 | 63 | 1014.7 |
| 20260506011539 | 20 | 0 | 0.0 | 0.0 | 0.00 | 0.00 | 0.00 | 62 | 1014.5 |
| 20260506011025 | 20 | 0 | 0.0 | 0.0 | 0.00 | 0.00 | 0.00 | 62 | 1014.7 |
| 20260506010519 | 20 | 0 | 0.0 | 0.0 | 0.00 | 0.00 | 0.00 | 62 | 1014.7 |
| 20260506010043 | 20 | 0 | 0.0 | 0.0 | 0.00 | 0.00 | 0.00 | 61 | 1014.8 |
| 20260506005523 | 21 | 0 | 0.0 | 0.0 | 0.00 | 0.00 | 0.00 | 60 | 1014.9 |
| 20260506005022 | 21 | 0 | 0.0 | 0.0 | 0.00 | 0.00 | 0.00 | 59 | 1014.9 |
| 20260506004557 | 21 | 0 | 0.0 | 0.0 | 0.00 | 0.00 | 0.00 | 57 | 1014.8 |
| 20260506004019 | 21 | 0 | 0.0 | 0.0 | 0.00 | 0.00 | 0.00 | 56 | 1014.7 |
| 20260506003521 | 21 | 0 | 0.0 | 0.0 | 0.00 | 0.00 | 0.00 | 55 | 1014.6 |
| 20260506003045 | 22 | 0 | 0.0 | 0.0 | 0.00 | 0.00 | 0.00 | 54 | 1014.5 |
| 20260506002520 | 22 | 0 | 0.0 | 0.0 | 0.00 | 0.00 | 0.00 | 53 | 1014.4 |
| 20260506002021 | 22 | 0 | 0.0 | 0.0 | 0.00 | 0.00 | 0.00 | 52 | 1014.4 |
| 20260506001541 | 22 | 0 | 0.0 | 0.0 | 0.00 | 0.00 | 0.00 | 52 | 1014.5 |
| 20260506001021 | 23 | 0 | 0.0 | 0.0 | 0.00 | 0.00 | 0.00 | 51 | 1014.5 |
| 20260506000521 | 23 | 0 | 0.0 | 0.0 | 0.00 | 0.00 | 0.00 | 52 | 1014.4 |
| 20260506000040 | 23 | 0 | 0.0 | 1.6 | 0.00 | 0.00 | 0.00 | 51 | 1014.5 |
| 20260505235520 | 23 | 0 | 0.0 | 1.6 | 0.00 | 0.00 | 0.00 | 49 | 1014.3 |
| 20260505235020 | 24 | 0 | 0.0 | 1.6 | 0.00 | 0.00 | 0.00 | 47 | 1014.2 |
| 20260505234557 | 24 | 0 | 0.0 | 0.0 | 0.00 | 0.00 | 0.00 | 47 | 1014.3 |
| 20260505234025 | 25 | 0 | 0.0 | 1.6 | 0.00 | 0.00 | 0.00 | 47 | 1014.2 |
| 20260505233525 | 25 | 0 | 0.0 | 6.4 | 0.00 | 0.00 | 0.00 | 45 | 1014.3 |
| 20260505233040 | 25 | 0 | 0.0 | 6.4 | 0.00 | 0.00 | 0.00 | 44 | 1014.1 |
| 20260505232522 | 25 | 171 | 0.0 | 6.4 | 0.00 | 0.00 | 0.00 | 42 | 1014.2 |
| 20260505232020 | 25 | 0 | 0.0 | 6.4 | 0.00 | 0.00 | 0.00 | 41 | 1014.2 |
| 20260505231537 | 25 | 0 | 0.0 | 4.8 | 0.00 | 0.00 | 0.00 | 41 | 1014.1 |
| 20260505231019 | 25 | 0 | 0.0 | 4.8 | 0.00 | 0.00 | 0.00 | 40 | 1014.0 |
| 20260505230520 | 25 | 0 | 0.0 | 8.0 | 0.00 | 0.00 | 0.00 | 39 | 1013.9 |
| 20260505230041 | 25 | 0 | 0.0 | 8.0 | 0.00 | 0.00 | 0.00 | 39 | 1013.9 |
| 20260505225524 | 25 | 0 | 0.0 | 6.4 | 0.00 | 0.00 | 0.00 | 39 | 1013.8 |
| 20260505225021 | 25 | 0 | 0.0 | 4.8 | 0.00 | 0.00 | 0.00 | 40 | 1013.9 |
| 20260505224539 | 26 | 203 | 0.0 | 8.0 | 0.00 | 0.00 | 0.00 | 40 | 1013.9 |
| 20260505224021 | 26 | 0 | 0.0 | 19.3 | 0.00 | 0.00 | 0.00 | 41 | 1014.0 |
| 20260505223520 | 26 | 196 | 1.6 | 19.3 | 0.00 | 0.00 | 0.00 | 40 | 1014.0 |
| 20260505223035 | 26 | 238 | 6.4 | 19.3 | 0.00 | 0.00 | 0.00 | 41 | 1014.0 |
| 20260505222524 | 26 | 188 | 1.6 | 16.1 | 0.00 | 0.00 | 0.00 | 43 | 1013.9 |
| 20260505222020 | 26 | 205 | 4.8 | 17.7 | 0.00 | 0.00 | 0.00 | 44 | 1014.0 |
| 20260505221535 | 26 | 179 | 3.2 | 17.7 | 0.00 | 0.00 | 0.00 | 45 | 1014.1 |
| 20260505221020 | 26 | 132 | 1.6 | 11.3 | 0.00 | 0.00 | 0.00 | 45 | 1014.1 |
| 20260505220520 | 26 | 167 | 3.2 | 11.3 | 0.00 | 0.00 | 0.00 | 45 | 1014.1 |
| 20260505220055 | 26 | 204 | 3.2 | 14.5 | 0.00 | 0.00 | 0.00 | 45 | 1014.1 |
| 20260505215520 | 26 | 175 | 1.6 | 19.3 | 0.00 | 0.00 | 0.00 | 44 | 1014.1 |
| 20260505215020 | 26 | 182 | 4.8 | 19.3 | 0.00 | 0.00 | 0.00 | 43 | 1014.1 |
| 20260505214540 | 26 | 0 | 0.0 | 4.8 | 0.00 | 0.00 | 0.00 | 47 | 1014.0 |
| 20260505214019 | 26 | 72 | 0.0 | 16.1 | 0.00 | 0.00 | 0.00 | 46 | 1013.9 |
| 20260505213519 | 26 | 0 | 3.2 | 16.1 | 0.00 | 0.00 | 0.00 | 45 | 1013.9 |
| 20260505213036 | 26 | 360 | 1.6 | 6.4 | 0.00 | 0.00 | 0.00 | 46 | 1014.1 |
| 20260505212520 | 26 | 227 | 1.6 | 6.4 | 0.00 | 0.00 | 0.00 | 46 | 1014.1 |
| 20260505212021 | 26 | 196 | 0.0 | 24.1 | 0.00 | 0.00 | 0.00 | 45 | 1014.1 |
| 20260505211545 | 26 | 191 | 1.6 | 25.7 | 0.00 | 0.00 | 0.00 | 46 | 1014.2 |
| 20260505211022 | 27 | 197 | 3.2 | 25.7 | 0.00 | 0.00 | 0.00 | 46 | 1014.1 |
| 20260505210520 | 27 | 196 | 1.6 | 9.7 | 0.00 | 0.00 | 0.00 | 45 | 1014.0 |
| 20260505210035 | 27 | 157 | 1.6 | 11.3 | 0.00 | 0.00 | 0.00 | 44 | 1014.1 |
| 20260505205523 | 27 | 0 | 0.0 | 11.3 | 0.00 | 0.00 | 0.00 | 45 | 1014.1 |
| 20260505205020 | 27 | 172 | 3.2 | 12.9 | 0.00 | 0.00 | 0.00 | 45 | 1014.2 |
| 20260505204539 | 27 | 0 | 3.2 | 16.1 | 0.00 | 0.00 | 0.00 | 45 | 1014.1 |
| 20260505204021 | 27 | 0 | 1.6 | 16.1 | 0.00 | 0.00 | 0.00 | 46 | 1014.2 |
| 20260505203522 | 27 | 186 | 3.2 | 16.1 | 0.00 | 0.00 | 0.00 | 44 | 1014.2 |
| 20260505203037 | 27 | 159 | 3.2 | 16.1 | 0.00 | 0.00 | 0.00 | 43 | 1014.4 |
| 20260505202521 | 27 | 0 | 3.2 | 16.1 | 0.00 | 0.00 | 0.00 | 47 | 1014.5 |
| 20260505202020 | 27 | 203 | 4.8 | 12.9 | 0.00 | 0.00 | 0.00 | 43 | 1014.6 |
| 20260505201537 | 27 | 168 | 1.6 | 12.9 | 0.00 | 0.00 | 0.00 | 45 | 1014.6 |
| 20260505201022 | 27 | 182 | 4.8 | 12.9 | 0.00 | 0.00 | 0.00 | 43 | 1014.6 |
| 20260505200522 | 28 | 0 | 1.6 | 12.9 | 0.00 | 0.00 | 0.00 | 45 | 1014.6 |
| 20260505200035 | 27 | 0 | 3.2 | 16.1 | 0.00 | 0.00 | 0.00 | 44 | 1014.7 |
| 20260505195521 | 27 | 205 | 3.2 | 16.1 | 0.00 | 0.00 | 0.00 | 44 | 1014.7 |
| 20260505195022 | 28 | 0 | 1.6 | 14.5 | 0.00 | 0.00 | 0.00 | 43 | 1014.8 |
| 20260505194540 | 28 | 177 | 3.2 | 14.5 | 0.00 | 0.00 | 0.00 | 43 | 1015.0 |
| 20260505194022 | 28 | 0 | 1.6 | 14.5 | 0.00 | 0.00 | 0.00 | 47 | 1015.0 |
| 20260505193521 | 28 | 137 | 1.6 | 14.5 | 0.00 | 0.00 | 0.00 | 44 | 1015.0 |
| 20260505193044 | 28 | 200 | 3.2 | 11.3 | 0.00 | 0.00 | 0.00 | 44 | 1015.1 |
| 20260505192523 | 27 | 180 | 3.2 | 11.3 | 0.00 | 0.00 | 0.00 | 46 | 1015.1 |
| 20260505192022 | 27 | 162 | 4.8 | 22.5 | 0.00 | 0.00 | 0.00 | 44 | 1015.1 |
| 20260505191550 | 27 | 197 | 3.2 | 22.5 | 0.00 | 0.00 | 0.00 | 45 | 1015.0 |
| 20260505191027 | 27 | 360 | 3.2 | 17.7 | 0.00 | 0.00 | 0.00 | 46 | 1015.1 |
| 20260505190521 | 27 | 194 | 4.8 | 17.7 | 0.00 | 0.00 | 0.00 | 45 | 1015.2 |
| 20260505190036 | 27 | 194 | 3.2 | 17.7 | 0.00 | 0.00 | 0.00 | 42 | 1015.4 |
| 20260505185521 | 27 | 0 | 0.0 | 16.1 | 0.00 | 0.00 | 0.00 | 46 | 1015.5 |
| 20260505185022 | 27 | 360 | 3.2 | 16.1 | 0.00 | 0.00 | 0.00 | 42 | 1015.5 |
| 20260505184535 | 27 | 186 | 3.2 | 12.9 | 0.00 | 0.00 | 0.00 | 44 | 1015.8 |
| 20260505184022 | 27 | 0 | 3.2 | 11.3 | 0.00 | 0.00 | 0.00 | 43 | 1015.9 |
| 20260505183523 | 27 | 15 | 0.0 | 16.1 | 0.00 | 0.00 | 0.00 | 45 | 1016.1 |
| 20260505183034 | 27 | 126 | 3.2 | 16.1 | 0.00 | 0.00 | 0.00 | 45 | 1016.1 |
| 20260505182522 | 27 | 192 | 3.2 | 12.9 | 0.00 | 0.00 | 0.00 | 47 | 1016.2 |
| 20260505182022 | 27 | 0 | 3.2 | 12.9 | 0.00 | 0.00 | 0.00 | 49 | 1016.3 |
| 20260505181538 | 27 | 179 | 1.6 | 9.7 | 0.00 | 0.00 | 0.00 | 49 | 1016.2 |
| 20260505181023 | 27 | 0 | 1.6 | 9.7 | 0.00 | 0.00 | 0.00 | 46 | 1016.2 |
| 20260505180521 | 27 | 174 | 1.6 | 8.0 | 0.00 | 0.00 | 0.00 | 48 | 1016.2 |
| 20260505180047 | 27 | 143 | 3.2 | 14.5 | 0.00 | 0.00 | 0.00 | 47 | 1016.2 |
| 20260505175520 | 27 | 188 | 1.6 | 14.5 | 0.00 | 0.00 | 0.00 | 48 | 1016.4 |
| 20260505175020 | 27 | 169 | 6.4 | 14.5 | 0.00 | 0.00 | 0.00 | 47 | 1016.5 |
| 20260505174544 | 27 | 206 | 4.8 | 16.1 | 0.00 | 0.00 | 0.00 | 48 | 1016.5 |
| 20260505174021 | 26 | 0 | 4.8 | 17.7 | 0.00 | 0.00 | 0.00 | 49 | 1016.5 |
| 20260505173519 | 26 | 205 | 3.2 | 19.3 | 0.00 | 0.00 | 0.00 | 50 | 1016.5 |
| 20260505173036 | 27 | 0 | 3.2 | 19.3 | 0.00 | 0.00 | 0.00 | 48 | 1016.5 |
| 20260505172519 | 26 | 168 | 4.8 | 19.3 | 0.00 | 0.00 | 0.00 | 49 | 1016.5 |
| 20260505172020 | 26 | 190 | 1.6 | 16.1 | 0.00 | 0.00 | 0.00 | 51 | 1016.6 |
| 20260505171536 | 26 | 183 | 3.2 | 16.1 | 0.00 | 0.00 | 0.00 | 50 | 1016.6 |
| 20260505171020 | 26 | 0 | 3.2 | 22.5 | 0.00 | 0.00 | 0.00 | 51 | 1016.6 |
| 20260505170519 | 26 | 302 | 1.6 | 22.5 | 0.00 | 0.00 | 0.00 | 51 | 1016.5 |
| 20260505170035 | 26 | 161 | 3.2 | 16.1 | 0.00 | 0.00 | 0.00 | 50 | 1016.7 |
| 20260505165523 | 26 | 198 | 4.8 | 16.1 | 0.00 | 0.00 | 0.00 | 51 | 1016.8 |
| 20260505165020 | 26 | 185 | 4.8 | 14.5 | 0.00 | 0.00 | 0.00 | 50 | 1016.8 |
| 20260505164540 | 26 | 212 | 1.6 | 14.5 | 0.00 | 0.00 | 0.00 | 52 | 1016.8 |
| 20260505164020 | 26 | 188 | 3.2 | 14.5 | 0.00 | 0.00 | 0.00 | 51 | 1016.7 |
| 20260505163520 | 26 | 192 | 3.2 | 12.9 | 0.00 | 0.00 | 0.00 | 55 | 1016.8 |
| 20260505163040 | 26 | 111 | 3.2 | 11.3 | 0.00 | 0.00 | 0.00 | 53 | 1016.8 |
| 20260505162519 | 25 | 200 | 0.0 | 8.0 | 0.00 | 0.00 | 0.00 | 55 | 1017.0 |
| 20260505162024 | 25 | 0 | 0.0 | 11.3 | 0.00 | 0.00 | 0.00 | 53 | 1016.9 |
| 20260505161535 | 25 | 0 | 0.0 | 11.3 | 0.00 | 0.00 | 0.00 | 55 | 1016.9 |
| 20260505161024 | 25 | 360 | 3.2 | 11.3 | 0.00 | 0.00 | 0.00 | 55 | 1017.0 |
| 20260505160523 | 25 | 186 | 1.6 | 11.3 | 0.00 | 0.00 | 0.00 | 56 | 1017.0 |
| 20260505153051 | 24 | 0 | 1.6 | 6.4 | 0.00 | 0.00 | 0.00 | 58 | 1017.1 |
| 20260505152524 | 24 | 238 | 1.6 | 11.3 | 0.00 | 0.00 | 0.00 | 57 | 1017.2 |
| 20260505152021 | 24 | 0 | 0.0 | 11.3 | 0.00 | 0.00 | 0.00 | 59 | 1017.2 |
| 20260505151545 | 23 | 360 | 1.6 | 9.7 | 0.00 | 0.00 | 0.00 | 60 | 1017.2 |
| 20260505151020 | 23 | 0 | 1.6 | 8.0 | 0.00 | 0.00 | 0.00 | 59 | 1017.2 |
| 20260505150524 | 23 | 159 | 1.6 | 9.7 | 0.00 | 0.00 | 0.00 | 59 | 1017.1 |
| 20260505140523 | 20 | 245 | 1.6 | 9.7 | 0.00 | 0.00 | 0.00 | 67 | 1016.7 |
| 20260505125024 | 14 | 0 | 0.0 | 4.8 | 0.00 | 0.00 | 0.00 | 93 | 1016.5 |
| 20260505124543 | 13 | 0 | 0.0 | 6.4 | 0.00 | 0.00 | 0.00 | 94 | 1016.6 |
| 20260505124024 | 13 | 190 | 1.6 | 6.4 | 0.00 | 0.00 | 0.00 | 95 | 1016.5 |
| 20260505123524 | 13 | 0 | 0.0 | 0.0 | 0.00 | 0.00 | 0.00 | 95 | 1016.6 |
| 20260505123058 | 12 | 0 | 0.0 | 0.0 | 0.00 | 0.00 | 0.00 | 95 | 1016.5 |
| 20260505122523 | 12 | 0 | 0.0 | 0.0 | 0.00 | 0.00 | 0.00 | 95 | 1016.6 |